owner,sensor,date,latitude,longitude,vertical_datum,wind_speed,wind_to_direction,wind_speed_of_gust,qcFlag 
WAVCIS,ioos:station:WAVCIS:CSI06:1,2011-11-01T00:00:00Z,28.8667,-90.4833,10.0,4.292,52.0,,'11111222,11111222,99999999' 
WAVCIS,ioos:station:WAVCIS:CSI06:1,2011-11-01T01:00:00Z,28.8667,-90.4833,10.0,5.504,27.0,,'11111222,11111222,99999999' 
WAVCIS,ioos:station:WAVCIS:CSI06:1,2011-11-01T02:00:00Z,28.8667,-90.4833,10.0,4.031,39.0,,'11111222,11111222,99999999' 
WAVCIS,ioos:station:WAVCIS:CSI06:1,2011-11-01T03:00:00Z,28.8667,-90.4833,10.0,3.35,45.0,,'11111222,11111222,99999999' 
WAVCIS,ioos:station:WAVCIS:CSI06:1,2011-11-01T04:00:00Z,28.8667,-90.4833,10.0,5.564,59.0,,'11111222,11111222,99999999' 
WAVCIS,ioos:station:WAVCIS:CSI06:1,2011-11-01T05:00:00Z,28.8667,-90.4833,10.0,6.437,55.0,,'11111222,11111222,99999999' 
WAVCIS,ioos:station:WAVCIS:CSI06:1,2011-11-01T06:00:00Z,28.8667,-90.4833,10.0,6.607,53.0,,'11111222,11111222,99999999' 
WAVCIS,ioos:station:WAVCIS:CSI06:1,2011-11-01T07:00:00Z,28.8667,-90.4833,10.0,6.427,48.0,,'11111222,11111222,99999999' 
WAVCIS,ioos:station:WAVCIS:CSI06:1,2011-11-01T08:00:00Z,28.8667,-90.4833,10.0,7.38,45.0,,'11111222,11111222,99999999' 
WAVCIS,ioos:station:WAVCIS:CSI06:1,2011-11-01T09:00:00Z,28.8667,-90.4833,10.0,7.34,47.0,,'11111222,11111222,99999999' 
WAVCIS,ioos:station:WAVCIS:CSI06:1,2011-11-01T10:00:00Z,28.8667,-90.4833,10.0,7.45,44.0,,'11111222,11111222,99999999' 
WAVCIS,ioos:station:WAVCIS:CSI06:1,2011-11-01T11:00:00Z,28.8667,-90.4833,10.0,7.61,43.0,,'11111222,11111222,99999999' 
WAVCIS,ioos:station:WAVCIS:CSI06:1,2011-11-01T12:00:00Z,28.8667,-90.4833,10.0,8.51,47.0,,'11111222,11111222,99999999' 
WAVCIS,ioos:station:WAVCIS:CSI06:1,2011-11-01T13:00:00Z,28.8667,-90.4833,10.0,9.03,48.0,,'11111222,11111222,99999999' 
WAVCIS,ioos:station:WAVCIS:CSI06:1,2011-11-01T14:00:00Z,28.8667,-90.4833,10.0,9.93,64.0,,'11111222,11111222,99999999' 
WAVCIS,ioos:station:WAVCIS:CSI06:1,2011-11-01T15:00:00Z,28.8667,-90.4833,10.0,10.02,60.0,,'11111222,11111222,99999999' 
WAVCIS,ioos:station:WAVCIS:CSI06:1,2011-11-01T16:00:00Z,28.8667,-90.4833,10.0,10.13,67.0,,'11111222,11111222,99999999' 
WAVCIS,ioos:station:WAVCIS:CSI06:1,2011-11-01T17:00:00Z,28.8667,-90.4833,10.0,9.62,72.0,,'11111222,11111222,99999999' 
WAVCIS,ioos:station:WAVCIS:CSI06:1,2011-11-01T18:00:00Z,28.8667,-90.4833,10.0,9.25,75.0,,'11111222,11111222,99999999' 
WAVCIS,ioos:station:WAVCIS:CSI06:1,2011-11-01T19:00:00Z,28.8667,-90.4833,10.0,8.25,68.0,,'11111222,11111222,99999999' 
WAVCIS,ioos:station:WAVCIS:CSI06:1,2011-11-01T20:00:00Z,28.8667,-90.4833,10.0,7.99,62.0,,'11111222,11111222,99999999' 
WAVCIS,ioos:station:WAVCIS:CSI06:1,2011-11-01T21:00:00Z,28.8667,-90.4833,10.0,7.67,62.0,,'11111222,11111222,99999999' 
WAVCIS,ioos:station:WAVCIS:CSI06:1,2011-11-01T22:00:00Z,28.8667,-90.4833,10.0,9.37,70.0,,'11111222,11111222,99999999' 
WAVCIS,ioos:station:WAVCIS:CSI06:1,2011-11-01T23:00:00Z,28.8667,-90.4833,10.0,10.55,74.0,,'11111222,11111222,99999999' 
WAVCIS,ioos:station:WAVCIS:CSI06:1,2011-11-02T00:00:00Z,28.8667,-90.4833,10.0,11.71,77.0,,'11111222,11111222,99999999' 
WAVCIS,ioos:station:WAVCIS:CSI06:1,2011-11-02T01:00:00Z,28.8667,-90.4833,10.0,11.18,81.0,,'11111222,11111222,99999999' 
WAVCIS,ioos:station:WAVCIS:CSI06:1,2011-11-02T02:00:00Z,28.8667,-90.4833,10.0,9.99,93.0,,'11111222,11111222,99999999' 
WAVCIS,ioos:station:WAVCIS:CSI06:1,2011-11-02T03:00:00Z,28.8667,-90.4833,10.0,10.64,85.0,,'11111222,11111222,99999999' 
WAVCIS,ioos:station:WAVCIS:CSI06:1,2011-11-02T04:00:00Z,28.8667,-90.4833,10.0,10.24,88.0,,'11111222,11111222,99999999' 
WAVCIS,ioos:station:WAVCIS:CSI06:1,2011-11-02T05:00:00Z,28.8667,-90.4833,10.0,9.36,96.0,,'11111222,11111222,99999999' 
WAVCIS,ioos:station:WAVCIS:CSI06:1,2011-11-02T06:00:00Z,28.8667,-90.4833,10.0,9.15,89.0,,'11111222,11111222,99999999' 
WAVCIS,ioos:station:WAVCIS:CSI06:1,2011-11-02T07:00:00Z,28.8667,-90.4833,10.0,9.7,85.0,,'11111222,11111222,99999999' 
WAVCIS,ioos:station:WAVCIS:CSI06:1,2011-11-02T08:00:00Z,28.8667,-90.4833,10.0,8.84,83.0,,'11111222,11111222,99999999' 
WAVCIS,ioos:station:WAVCIS:CSI06:1,2011-11-02T09:00:00Z,28.8667,-90.4833,10.0,8.61,109.0,,'11111222,11111222,99999999' 
WAVCIS,ioos:station:WAVCIS:CSI06:1,2011-11-02T10:00:00Z,28.8667,-90.4833,10.0,9.89,107.0,,'11111222,11111222,99999999' 
WAVCIS,ioos:station:WAVCIS:CSI06:1,2011-11-02T11:00:00Z,28.8667,-90.4833,10.0,9.32,106.0,,'11111222,11111222,99999999' 
WAVCIS,ioos:station:WAVCIS:CSI06:1,2011-11-02T12:00:00Z,28.8667,-90.4833,10.0,9.46,113.0,,'11111222,11111222,99999999' 
WAVCIS,ioos:station:WAVCIS:CSI06:1,2011-11-02T13:00:00Z,28.8667,-90.4833,10.0,9.17,112.0,,'11111222,11111222,99999999' 
WAVCIS,ioos:station:WAVCIS:CSI06:1,2011-11-02T14:00:00Z,28.8667,-90.4833,10.0,9.66,111.0,,'11111222,11111222,99999999' 
WAVCIS,ioos:station:WAVCIS:CSI06:1,2011-11-02T15:00:00Z,28.8667,-90.4833,10.0,10.02,111.0,,'11111222,11111222,99999999' 
WAVCIS,ioos:station:WAVCIS:CSI06:1,2011-11-02T16:00:00Z,28.8667,-90.4833,10.0,9.82,109.0,,'11111222,11111222,99999999' 
WAVCIS,ioos:station:WAVCIS:CSI06:1,2011-11-02T17:00:00Z,28.8667,-90.4833,10.0,9.68,112.0,,'11111222,11111222,99999999' 
WAVCIS,ioos:station:WAVCIS:CSI06:1,2011-11-02T18:00:00Z,28.8667,-90.4833,10.0,8.89,107.0,,'11111222,11111222,99999999' 
WAVCIS,ioos:station:WAVCIS:CSI06:1,2011-11-02T19:00:00Z,28.8667,-90.4833,10.0,7.91,120.0,,'11111222,11111222,99999999' 
WAVCIS,ioos:station:WAVCIS:CSI06:1,2011-11-02T20:00:00Z,28.8667,-90.4833,10.0,8.71,90.0,,'11111222,11111222,99999999' 
WAVCIS,ioos:station:WAVCIS:CSI06:1,2011-11-02T21:00:00Z,28.8667,-90.4833,10.0,9.27,84.0,,'11111222,11111222,99999999' 
WAVCIS,ioos:station:WAVCIS:CSI06:1,2011-11-02T22:00:00Z,28.8667,-90.4833,10.0,9.64,88.0,,'11111222,11111222,99999999' 
WAVCIS,ioos:station:WAVCIS:CSI06:1,2011-11-02T23:00:00Z,28.8667,-90.4833,10.0,11.69,85.0,,'11111222,11111222,99999999' 
WAVCIS,ioos:station:WAVCIS:CSI06:1,2011-11-03T00:00:00Z,28.8667,-90.4833,10.0,12.04,81.0,,'11111222,11111222,99999999' 
WAVCIS,ioos:station:WAVCIS:CSI06:1,2011-11-03T01:00:00Z,28.8667,-90.4833,10.0,11.29,90.0,,'11111222,11111222,99999999' 
WAVCIS,ioos:station:WAVCIS:CSI06:1,2011-11-03T02:00:00Z,28.8667,-90.4833,10.0,9.86,93.0,,'11111222,11111222,99999999' 
WAVCIS,ioos:station:WAVCIS:CSI06:1,2011-11-03T03:00:00Z,28.8667,-90.4833,10.0,9.66,115.0,,'11111222,11111222,99999999' 
WAVCIS,ioos:station:WAVCIS:CSI06:1,2011-11-03T04:00:00Z,28.8667,-90.4833,10.0,9.93,119.0,,'11111222,11111222,99999999' 
WAVCIS,ioos:station:WAVCIS:CSI06:1,2011-11-03T05:00:00Z,28.8667,-90.4833,10.0,8.76,139.0,,'11111222,11111222,99999999' 
WAVCIS,ioos:station:WAVCIS:CSI06:1,2011-11-03T06:00:00Z,28.8667,-90.4833,10.0,7.96,152.0,,'11111222,11111222,99999999' 
WAVCIS,ioos:station:WAVCIS:CSI06:1,2011-11-03T07:00:00Z,28.8667,-90.4833,10.0,7.95,154.0,,'11111222,11111222,99999999' 
WAVCIS,ioos:station:WAVCIS:CSI06:1,2011-11-03T08:00:00Z,28.8667,-90.4833,10.0,5.636,163.0,,'11111222,11111222,99999999' 
WAVCIS,ioos:station:WAVCIS:CSI06:1,2011-11-03T09:00:00Z,28.8667,-90.4833,10.0,4.93,194.0,,'11111222,11111222,99999999' 
WAVCIS,ioos:station:WAVCIS:CSI06:1,2011-11-03T10:00:00Z,28.8667,-90.4833,10.0,5.127,210.0,,'11111222,11111222,99999999' 
WAVCIS,ioos:station:WAVCIS:CSI06:1,2011-11-03T11:00:00Z,28.8667,-90.4833,10.0,4.768,246.0,,'11111222,11111222,99999999' 
WAVCIS,ioos:station:WAVCIS:CSI06:1,2011-11-03T12:00:00Z,28.8667,-90.4833,10.0,4.431,267.0,,'11111222,11111222,99999999' 
WAVCIS,ioos:station:WAVCIS:CSI06:1,2011-11-03T13:00:00Z,28.8667,-90.4833,10.0,5.109,243.0,,'11111222,11111222,99999999' 
WAVCIS,ioos:station:WAVCIS:CSI06:1,2011-11-03T14:00:00Z,28.8667,-90.4833,10.0,5.471,246.0,,'11111222,11111222,99999999' 
WAVCIS,ioos:station:WAVCIS:CSI06:1,2011-11-03T15:00:00Z,28.8667,-90.4833,10.0,5.003,247.0,,'11111222,11111222,99999999' 
WAVCIS,ioos:station:WAVCIS:CSI06:1,2011-11-03T16:00:00Z,28.8667,-90.4833,10.0,12.69,306.0,,'11111222,11111222,99999999' 
WAVCIS,ioos:station:WAVCIS:CSI06:1,2011-11-03T17:00:00Z,28.8667,-90.4833,10.0,11.07,317.0,,'11111222,11111222,99999999' 
WAVCIS,ioos:station:WAVCIS:CSI06:1,2011-11-03T18:00:00Z,28.8667,-90.4833,10.0,9.05,317.0,,'11111222,11111222,99999999' 
WAVCIS,ioos:station:WAVCIS:CSI06:1,2011-11-03T19:00:00Z,28.8667,-90.4833,10.0,11.31,323.0,,'11111222,11111222,99999999' 
WAVCIS,ioos:station:WAVCIS:CSI06:1,2011-11-03T20:00:00Z,28.8667,-90.4833,10.0,11.75,323.0,,'11111222,11111222,99999999' 
WAVCIS,ioos:station:WAVCIS:CSI06:1,2011-11-03T21:00:00Z,28.8667,-90.4833,10.0,10.31,325.0,,'11111222,11111222,99999999' 
WAVCIS,ioos:station:WAVCIS:CSI06:1,2011-11-03T22:00:00Z,28.8667,-90.4833,10.0,10.31,332.0,,'11111222,11111222,99999999' 
WAVCIS,ioos:station:WAVCIS:CSI06:1,2011-11-03T23:00:00Z,28.8667,-90.4833,10.0,10.26,329.0,,'11111222,11111222,99999999' 
WAVCIS,ioos:station:WAVCIS:CSI06:1,2011-11-04T00:00:00Z,28.8667,-90.4833,10.0,9.83,336.0,,'11111222,11111222,99999999' 
WAVCIS,ioos:station:WAVCIS:CSI06:1,2011-11-04T01:00:00Z,28.8667,-90.4833,10.0,10.97,336.0,,'11111222,11111222,99999999' 
WAVCIS,ioos:station:WAVCIS:CSI06:1,2011-11-04T02:00:00Z,28.8667,-90.4833,10.0,13.27,338.0,,'11111222,11111222,99999999' 
WAVCIS,ioos:station:WAVCIS:CSI06:1,2011-11-04T03:00:00Z,28.8667,-90.4833,10.0,9.49,347.0,,'11111222,11111222,99999999' 
WAVCIS,ioos:station:WAVCIS:CSI06:1,2011-11-04T04:00:00Z,28.8667,-90.4833,10.0,9.31,342.0,,'11111222,11111222,99999999' 
WAVCIS,ioos:station:WAVCIS:CSI06:1,2011-11-04T05:00:00Z,28.8667,-90.4833,10.0,8.29,349.0,,'11111222,11111222,99999999' 
WAVCIS,ioos:station:WAVCIS:CSI06:1,2011-11-04T06:00:00Z,28.8667,-90.4833,10.0,7.78,354.0,,'11111222,11111222,99999999' 
WAVCIS,ioos:station:WAVCIS:CSI06:1,2011-11-04T07:00:00Z,28.8667,-90.4833,10.0,8.47,6.0,,'11111222,11111222,99999999' 
WAVCIS,ioos:station:WAVCIS:CSI06:1,2011-11-04T08:00:00Z,28.8667,-90.4833,10.0,7.48,352.0,,'11111222,11111222,99999999' 
WAVCIS,ioos:station:WAVCIS:CSI06:1,2011-11-04T09:00:00Z,28.8667,-90.4833,10.0,8.23,344.0,,'11111222,11111222,99999999' 
WAVCIS,ioos:station:WAVCIS:CSI06:1,2011-11-04T10:00:00Z,28.8667,-90.4833,10.0,6.921,353.0,,'11111222,11111222,99999999' 
WAVCIS,ioos:station:WAVCIS:CSI06:1,2011-11-04T11:00:00Z,28.8667,-90.4833,10.0,7.06,355.0,,'11111222,11111222,99999999' 
WAVCIS,ioos:station:WAVCIS:CSI06:1,2011-11-04T12:00:00Z,28.8667,-90.4833,10.0,9.57,10.0,,'11111222,11111222,99999999' 
WAVCIS,ioos:station:WAVCIS:CSI06:1,2011-11-04T13:00:00Z,28.8667,-90.4833,10.0,9.22,9.0,,'11111222,11111222,99999999' 
WAVCIS,ioos:station:WAVCIS:CSI06:1,2011-11-04T14:00:00Z,28.8667,-90.4833,10.0,9.61,12.0,,'11111222,11111222,99999999' 
WAVCIS,ioos:station:WAVCIS:CSI06:1,2011-11-04T15:00:00Z,28.8667,-90.4833,10.0,8.46,14.0,,'11111222,11111222,99999999' 
WAVCIS,ioos:station:WAVCIS:CSI06:1,2011-11-04T16:00:00Z,28.8667,-90.4833,10.0,5.84,10.0,,'11111222,11111222,99999999' 
WAVCIS,ioos:station:WAVCIS:CSI06:1,2011-11-04T17:00:00Z,28.8667,-90.4833,10.0,5.297,16.0,,'11111222,11111222,99999999' 
WAVCIS,ioos:station:WAVCIS:CSI06:1,2011-11-04T18:00:00Z,28.8667,-90.4833,10.0,4.159,5.0,,'11111222,11111222,99999999' 
WAVCIS,ioos:station:WAVCIS:CSI06:1,2011-11-04T19:00:00Z,28.8667,-90.4833,10.0,4.66,358.0,,'11111222,11111222,99999999' 
WAVCIS,ioos:station:WAVCIS:CSI06:1,2011-11-04T20:00:00Z,28.8667,-90.4833,10.0,4.362,4.0,,'11111222,11111222,99999999' 
WAVCIS,ioos:station:WAVCIS:CSI06:1,2011-11-04T21:00:00Z,28.8667,-90.4833,10.0,4.122,353.0,,'11111222,11111222,99999999' 
WAVCIS,ioos:station:WAVCIS:CSI06:1,2011-11-04T22:00:00Z,28.8667,-90.4833,10.0,4.965,10.0,,'11111222,11111222,99999999' 
WAVCIS,ioos:station:WAVCIS:CSI06:1,2011-11-04T23:00:00Z,28.8667,-90.4833,10.0,5.168,14.0,,'11111222,11111222,99999999' 
WAVCIS,ioos:station:WAVCIS:CSI06:1,2011-11-05T00:00:00Z,28.8667,-90.4833,10.0,5.21,19.0,,'11111222,11111222,99999999' 
WAVCIS,ioos:station:WAVCIS:CSI06:1,2011-11-05T01:00:00Z,28.8667,-90.4833,10.0,7.35,19.0,,'11111222,11111222,99999999' 
WAVCIS,ioos:station:WAVCIS:CSI06:1,2011-11-05T02:00:00Z,28.8667,-90.4833,10.0,7.63,30.0,,'11111222,11111222,99999999' 
WAVCIS,ioos:station:WAVCIS:CSI06:1,2011-11-05T03:00:00Z,28.8667,-90.4833,10.0,8.31,35.0,,'11111222,11111222,99999999' 
WAVCIS,ioos:station:WAVCIS:CSI06:1,2011-11-05T04:00:00Z,28.8667,-90.4833,10.0,8.51,39.0,,'11111222,11111222,99999999' 
WAVCIS,ioos:station:WAVCIS:CSI06:1,2011-11-05T05:00:00Z,28.8667,-90.4833,10.0,8.21,45.0,,'11111222,11111222,99999999' 
WAVCIS,ioos:station:WAVCIS:CSI06:1,2011-11-05T06:00:00Z,28.8667,-90.4833,10.0,8.84,53.0,,'11111222,11111222,99999999' 
WAVCIS,ioos:station:WAVCIS:CSI06:1,2011-11-05T07:00:00Z,28.8667,-90.4833,10.0,9.9,64.0,,'11111222,11111222,99999999' 
WAVCIS,ioos:station:WAVCIS:CSI06:1,2011-11-05T08:00:00Z,28.8667,-90.4833,10.0,9.24,74.0,,'11111222,11111222,99999999' 
WAVCIS,ioos:station:WAVCIS:CSI06:1,2011-11-05T09:00:00Z,28.8667,-90.4833,10.0,6.921,83.0,,'11111222,11111222,99999999' 
WAVCIS,ioos:station:WAVCIS:CSI06:1,2011-11-05T10:00:00Z,28.8667,-90.4833,10.0,6.861,73.0,,'11111222,11111222,99999999' 
WAVCIS,ioos:station:WAVCIS:CSI06:1,2011-11-05T11:00:00Z,28.8667,-90.4833,10.0,8.14,69.0,,'11111222,11111222,99999999' 
WAVCIS,ioos:station:WAVCIS:CSI06:1,2011-11-05T12:00:00Z,28.8667,-90.4833,10.0,7.87,64.0,,'11111222,11111222,99999999' 
WAVCIS,ioos:station:WAVCIS:CSI06:1,2011-11-05T13:00:00Z,28.8667,-90.4833,10.0,8.09,50.0,,'11111222,11111222,99999999' 
WAVCIS,ioos:station:WAVCIS:CSI06:1,2011-11-05T14:00:00Z,28.8667,-90.4833,10.0,7.79,44.0,,'11111222,11111222,99999999' 
WAVCIS,ioos:station:WAVCIS:CSI06:1,2011-11-05T15:00:00Z,28.8667,-90.4833,10.0,6.101,38.0,,'11111222,11111222,99999999' 
WAVCIS,ioos:station:WAVCIS:CSI06:1,2011-11-05T16:00:00Z,28.8667,-90.4833,10.0,7.56,39.0,,'11111222,11111222,99999999' 
WAVCIS,ioos:station:WAVCIS:CSI06:1,2011-11-05T17:00:00Z,28.8667,-90.4833,10.0,8.32,41.0,,'11111222,11111222,99999999' 
WAVCIS,ioos:station:WAVCIS:CSI06:1,2011-11-05T18:00:00Z,28.8667,-90.4833,10.0,8.55,34.0,,'11111222,11111222,99999999' 
WAVCIS,ioos:station:WAVCIS:CSI06:1,2011-11-05T19:00:00Z,28.8667,-90.4833,10.0,7.82,43.0,,'11111222,11111222,99999999' 
WAVCIS,ioos:station:WAVCIS:CSI06:1,2011-11-05T20:00:00Z,28.8667,-90.4833,10.0,8.55,62.0,,'11111222,11111222,99999999' 
WAVCIS,ioos:station:WAVCIS:CSI06:1,2011-11-05T21:00:00Z,28.8667,-90.4833,10.0,10.18,67.0,,'11111222,11111222,99999999' 
WAVCIS,ioos:station:WAVCIS:CSI06:1,2011-11-05T22:00:00Z,28.8667,-90.4833,10.0,11.21,61.0,,'11111222,11111222,99999999' 
WAVCIS,ioos:station:WAVCIS:CSI06:1,2011-11-05T23:00:00Z,28.8667,-90.4833,10.0,10.57,60.0,,'11111222,11111222,99999999' 
WAVCIS,ioos:station:WAVCIS:CSI06:1,2011-11-06T00:00:00Z,28.8667,-90.4833,10.0,8.58,56.0,,'11111222,11111222,99999999' 
WAVCIS,ioos:station:WAVCIS:CSI06:1,2011-11-06T01:00:00Z,28.8667,-90.4833,10.0,10.43,76.0,,'11111222,11111222,99999999' 
WAVCIS,ioos:station:WAVCIS:CSI06:1,2011-11-06T02:00:00Z,28.8667,-90.4833,10.0,13.73,83.0,,'11111222,11111222,99999999' 
WAVCIS,ioos:station:WAVCIS:CSI06:1,2011-11-06T03:00:00Z,28.8667,-90.4833,10.0,14.15,85.0,,'11111222,11111222,99999999' 
WAVCIS,ioos:station:WAVCIS:CSI06:1,2011-11-06T04:00:00Z,28.8667,-90.4833,10.0,11.04,109.0,,'11111222,11111222,99999999' 
WAVCIS,ioos:station:WAVCIS:CSI06:1,2011-11-06T05:00:00Z,28.8667,-90.4833,10.0,10.78,108.0,,'11111222,11111222,99999999' 
WAVCIS,ioos:station:WAVCIS:CSI06:1,2011-11-06T06:00:00Z,28.8667,-90.4833,10.0,7.88,77.0,,'11111222,11111222,99999999' 
WAVCIS,ioos:station:WAVCIS:CSI06:1,2011-11-06T07:00:00Z,28.8667,-90.4833,10.0,10.1,133.0,,'11111222,11111222,99999999' 
WAVCIS,ioos:station:WAVCIS:CSI06:1,2011-11-06T08:00:00Z,28.8667,-90.4833,10.0,10.53,136.0,,'11111222,11111222,99999999' 
WAVCIS,ioos:station:WAVCIS:CSI06:1,2011-11-06T09:00:00Z,28.8667,-90.4833,10.0,10.37,124.0,,'11111222,11111222,99999999' 
WAVCIS,ioos:station:WAVCIS:CSI06:1,2011-11-06T10:00:00Z,28.8667,-90.4833,10.0,8.67,124.0,,'11111222,11111222,99999999' 
WAVCIS,ioos:station:WAVCIS:CSI06:1,2011-11-06T11:00:00Z,28.8667,-90.4833,10.0,6.808,131.0,,'11111222,11111222,99999999' 
WAVCIS,ioos:station:WAVCIS:CSI06:1,2011-11-06T12:00:00Z,28.8667,-90.4833,10.0,8.27,130.0,,'11111222,11111222,99999999' 
WAVCIS,ioos:station:WAVCIS:CSI06:1,2011-11-06T13:00:00Z,28.8667,-90.4833,10.0,6.067,123.0,,'11111222,11111222,99999999' 
WAVCIS,ioos:station:WAVCIS:CSI06:1,2011-11-06T14:00:00Z,28.8667,-90.4833,10.0,5.38,112.0,,'11111222,11111222,99999999' 
WAVCIS,ioos:station:WAVCIS:CSI06:1,2011-11-06T15:00:00Z,28.8667,-90.4833,10.0,6.309,115.0,,'11111222,11111222,99999999' 
WAVCIS,ioos:station:WAVCIS:CSI06:1,2011-11-06T16:00:00Z,28.8667,-90.4833,10.0,7.11,100.0,,'11111222,11111222,99999999' 
WAVCIS,ioos:station:WAVCIS:CSI06:1,2011-11-06T17:00:00Z,28.8667,-90.4833,10.0,6.996,86.0,,'11111222,11111222,99999999' 
WAVCIS,ioos:station:WAVCIS:CSI06:1,2011-11-06T18:00:00Z,28.8667,-90.4833,10.0,10.25,50.0,,'11111222,11111222,99999999' 
WAVCIS,ioos:station:WAVCIS:CSI06:1,2011-11-06T19:00:00Z,28.8667,-90.4833,10.0,10.23,62.0,,'11111222,11111222,99999999' 
WAVCIS,ioos:station:WAVCIS:CSI06:1,2011-11-06T20:00:00Z,28.8667,-90.4833,10.0,10.13,66.0,,'11111222,11111222,99999999' 
WAVCIS,ioos:station:WAVCIS:CSI06:1,2011-11-06T21:00:00Z,28.8667,-90.4833,10.0,11.74,65.0,,'11111222,11111222,99999999' 
WAVCIS,ioos:station:WAVCIS:CSI06:1,2011-11-06T22:00:00Z,28.8667,-90.4833,10.0,11.2,64.0,,'11111222,11111222,99999999' 
WAVCIS,ioos:station:WAVCIS:CSI06:1,2011-11-06T23:00:00Z,28.8667,-90.4833,10.0,11.28,64.0,,'11111222,11111222,99999999' 
WAVCIS,ioos:station:WAVCIS:CSI06:1,2011-11-07T00:00:00Z,28.8667,-90.4833,10.0,11.3,64.0,,'11111222,11111222,99999999' 
WAVCIS,ioos:station:WAVCIS:CSI06:1,2011-11-07T01:00:00Z,28.8667,-90.4833,10.0,12.36,65.0,,'11111222,11111222,99999999' 
WAVCIS,ioos:station:WAVCIS:CSI06:1,2011-11-07T02:00:00Z,28.8667,-90.4833,10.0,12.94,72.0,,'11111222,11111222,99999999' 
WAVCIS,ioos:station:WAVCIS:CSI06:1,2011-11-07T03:00:00Z,28.8667,-90.4833,10.0,10.15,64.0,,'11111222,11111222,99999999' 
WAVCIS,ioos:station:WAVCIS:CSI06:1,2011-11-07T04:00:00Z,28.8667,-90.4833,10.0,10.0,94.0,,'11111222,11111222,99999999' 
WAVCIS,ioos:station:WAVCIS:CSI06:1,2011-11-07T05:00:00Z,28.8667,-90.4833,10.0,10.44,96.0,,'11111222,11111222,99999999' 
WAVCIS,ioos:station:WAVCIS:CSI06:1,2011-11-07T06:00:00Z,28.8667,-90.4833,10.0,10.6,104.0,,'11111222,11111222,99999999' 
WAVCIS,ioos:station:WAVCIS:CSI06:1,2011-11-07T07:00:00Z,28.8667,-90.4833,10.0,9.81,102.0,,'11111222,11111222,99999999' 
WAVCIS,ioos:station:WAVCIS:CSI06:1,2011-11-07T08:00:00Z,28.8667,-90.4833,10.0,8.35,97.0,,'11111222,11111222,99999999' 
WAVCIS,ioos:station:WAVCIS:CSI06:1,2011-11-07T09:00:00Z,28.8667,-90.4833,10.0,10.29,116.0,,'11111222,11111222,99999999' 
WAVCIS,ioos:station:WAVCIS:CSI06:1,2011-11-07T10:00:00Z,28.8667,-90.4833,10.0,10.57,118.0,,'11111222,11111222,99999999' 
WAVCIS,ioos:station:WAVCIS:CSI06:1,2011-11-07T11:00:00Z,28.8667,-90.4833,10.0,9.52,121.0,,'11111222,11111222,99999999' 
WAVCIS,ioos:station:WAVCIS:CSI06:1,2011-11-07T12:00:00Z,28.8667,-90.4833,10.0,10.32,118.0,,'11111222,11111222,99999999' 
WAVCIS,ioos:station:WAVCIS:CSI06:1,2011-11-07T13:00:00Z,28.8667,-90.4833,10.0,10.43,117.0,,'11111222,11111222,99999999' 
WAVCIS,ioos:station:WAVCIS:CSI06:1,2011-11-07T14:00:00Z,28.8667,-90.4833,10.0,9.57,116.0,,'11111222,11111222,99999999' 
WAVCIS,ioos:station:WAVCIS:CSI06:1,2011-11-07T15:00:00Z,28.8667,-90.4833,10.0,8.83,107.0,,'11111222,11111222,99999999' 
WAVCIS,ioos:station:WAVCIS:CSI06:1,2011-11-07T16:00:00Z,28.8667,-90.4833,10.0,8.17,107.0,,'11111222,11111222,99999999' 
WAVCIS,ioos:station:WAVCIS:CSI06:1,2011-11-07T17:00:00Z,28.8667,-90.4833,10.0,8.69,78.0,,'11111222,11111222,99999999' 
WAVCIS,ioos:station:WAVCIS:CSI06:1,2011-11-07T18:00:00Z,28.8667,-90.4833,10.0,10.23,75.0,,'11111222,11111222,99999999' 
WAVCIS,ioos:station:WAVCIS:CSI06:1,2011-11-07T19:00:00Z,28.8667,-90.4833,10.0,10.32,76.0,,'11111222,11111222,99999999' 
WAVCIS,ioos:station:WAVCIS:CSI06:1,2011-11-07T20:00:00Z,28.8667,-90.4833,10.0,10.78,78.0,,'11111222,11111222,99999999' 
WAVCIS,ioos:station:WAVCIS:CSI06:1,2011-11-07T21:00:00Z,28.8667,-90.4833,10.0,11.29,82.0,,'11111222,11111222,99999999' 
WAVCIS,ioos:station:WAVCIS:CSI06:1,2011-11-07T22:00:00Z,28.8667,-90.4833,10.0,11.5,88.0,,'11111222,11111222,99999999' 
WAVCIS,ioos:station:WAVCIS:CSI06:1,2011-11-07T23:00:00Z,28.8667,-90.4833,10.0,11.33,87.0,,'11111222,11111222,99999999' 
WAVCIS,ioos:station:WAVCIS:CSI06:1,2011-11-08T00:00:00Z,28.8667,-90.4833,10.0,11.37,86.0,,'11111222,11111222,99999999' 
WAVCIS,ioos:station:WAVCIS:CSI06:1,2011-11-08T01:00:00Z,28.8667,-90.4833,10.0,10.47,85.0,,'11111222,11111222,99999999' 
WAVCIS,ioos:station:WAVCIS:CSI06:1,2011-11-08T02:00:00Z,28.8667,-90.4833,10.0,10.33,81.0,,'11111222,11111222,99999999' 
WAVCIS,ioos:station:WAVCIS:CSI06:1,2011-11-08T03:00:00Z,28.8667,-90.4833,10.0,10.35,103.0,,'11111222,11111222,99999999' 
WAVCIS,ioos:station:WAVCIS:CSI06:1,2011-11-08T04:00:00Z,28.8667,-90.4833,10.0,9.17,96.0,,'11111222,11111222,99999999' 
WAVCIS,ioos:station:WAVCIS:CSI06:1,2011-11-08T05:00:00Z,28.8667,-90.4833,10.0,9.94,105.0,,'11111222,11111222,99999999' 
WAVCIS,ioos:station:WAVCIS:CSI06:1,2011-11-08T06:00:00Z,28.8667,-90.4833,10.0,11.55,129.0,,'11111222,11111222,99999999' 
WAVCIS,ioos:station:WAVCIS:CSI06:1,2011-11-08T07:00:00Z,28.8667,-90.4833,10.0,11.36,129.0,,'11111222,11111222,99999999' 
WAVCIS,ioos:station:WAVCIS:CSI06:1,2011-11-08T08:00:00Z,28.8667,-90.4833,10.0,10.91,133.0,,'11111222,11111222,99999999' 
WAVCIS,ioos:station:WAVCIS:CSI06:1,2011-11-08T09:00:00Z,28.8667,-90.4833,10.0,10.62,128.0,,'11111222,11111222,99999999' 
WAVCIS,ioos:station:WAVCIS:CSI06:1,2011-11-08T10:00:00Z,28.8667,-90.4833,10.0,9.63,126.0,,'11111222,11111222,99999999' 
WAVCIS,ioos:station:WAVCIS:CSI06:1,2011-11-08T11:00:00Z,28.8667,-90.4833,10.0,9.65,128.0,,'11111222,11111222,99999999' 
WAVCIS,ioos:station:WAVCIS:CSI06:1,2011-11-08T12:00:00Z,28.8667,-90.4833,10.0,9.21,128.0,,'11111222,11111222,99999999' 
WAVCIS,ioos:station:WAVCIS:CSI06:1,2011-11-08T13:00:00Z,28.8667,-90.4833,10.0,9.08,127.0,,'11111222,11111222,99999999' 
WAVCIS,ioos:station:WAVCIS:CSI06:1,2011-11-08T14:00:00Z,28.8667,-90.4833,10.0,9.39,126.0,,'11111222,11111222,99999999' 
WAVCIS,ioos:station:WAVCIS:CSI06:1,2011-11-08T15:00:00Z,28.8667,-90.4833,10.0,8.35,133.0,,'11111222,11111222,99999999' 
WAVCIS,ioos:station:WAVCIS:CSI06:1,2011-11-08T16:00:00Z,28.8667,-90.4833,10.0,8.22,137.0,,'11111222,11111222,99999999' 
WAVCIS,ioos:station:WAVCIS:CSI06:1,2011-11-08T17:00:00Z,28.8667,-90.4833,10.0,8.58,137.0,,'11111222,11111222,99999999' 
WAVCIS,ioos:station:WAVCIS:CSI06:1,2011-11-08T18:00:00Z,28.8667,-90.4833,10.0,7.8,137.0,,'11111222,11111222,99999999' 
WAVCIS,ioos:station:WAVCIS:CSI06:1,2011-11-08T19:00:00Z,28.8667,-90.4833,10.0,6.502,139.0,,'11111222,11111222,99999999' 
WAVCIS,ioos:station:WAVCIS:CSI06:1,2011-11-08T20:00:00Z,28.8667,-90.4833,10.0,6.731,134.0,,'11111222,11111222,99999999' 
WAVCIS,ioos:station:WAVCIS:CSI06:1,2011-11-08T21:00:00Z,28.8667,-90.4833,10.0,6.463,133.0,,'11111222,11111222,99999999' 
WAVCIS,ioos:station:WAVCIS:CSI06:1,2011-11-08T22:00:00Z,28.8667,-90.4833,10.0,7.04,128.0,,'11111222,11111222,99999999' 
WAVCIS,ioos:station:WAVCIS:CSI06:1,2011-11-08T23:00:00Z,28.8667,-90.4833,10.0,6.422,131.0,,'11111222,11111222,99999999' 
WAVCIS,ioos:station:WAVCIS:CSI06:1,2011-11-09T00:00:00Z,28.8667,-90.4833,10.0,6.045,134.0,,'11111222,11111222,99999999' 
WAVCIS,ioos:station:WAVCIS:CSI06:1,2011-11-09T01:00:00Z,28.8667,-90.4833,10.0,7.13,132.0,,'11111222,11111222,99999999' 
WAVCIS,ioos:station:WAVCIS:CSI06:1,2011-11-09T02:00:00Z,28.8667,-90.4833,10.0,7.75,135.0,,'11111222,11111222,99999999' 
WAVCIS,ioos:station:WAVCIS:CSI06:1,2011-11-09T03:00:00Z,28.8667,-90.4833,10.0,6.811,142.0,,'11111222,11111222,99999999' 
WAVCIS,ioos:station:WAVCIS:CSI06:1,2011-11-09T04:00:00Z,28.8667,-90.4833,10.0,9.01,152.0,,'11111222,11111222,99999999' 
WAVCIS,ioos:station:WAVCIS:CSI06:1,2011-11-09T05:00:00Z,28.8667,-90.4833,10.0,8.04,168.0,,'11111222,11111222,99999999' 
WAVCIS,ioos:station:WAVCIS:CSI06:1,2011-11-09T06:00:00Z,28.8667,-90.4833,10.0,8.96,156.0,,'11111222,11111222,99999999' 